Tracking 23114 objects as of 18-May-2021
HD Live streaming from Space Station
objects crossing your sky now

SL-8 DEB

Track SL-8 DEB now!
10-day predictions


NORAD ID: 18552
Int'l Code: 1986-086C
Perigee: 832.1 km
Apogee: 882.0 km
Inclination: 82.9 °
Period: 101.9 minutes
Semi major axis: 7228 km
RCS: 0.0125 m2 (small)
Launch date: November 13, 1986
Source: Commonwealth of Independent States (former USSR) (CIS)
Launch site: PLESETSK MISSILE AND SPACE COMPLEX (PKMTR)

Note: This is SATELLITE DEBRIS
aabbcc
Your satellite tracking list
Your tracking list is empty




NASA's NSSDC Master Catalog

Two Line Element Set (TLE):
1 18552U 86086C   21138.12831664  .00000554  00000-0  28792-3 0  9990
2 18552  82.9239 171.7390 0034518 110.2999 314.6162 14.12771246760221
Source of the keplerian elements: AFSPC